Temperature
26 25 24 23 22 21 21 21 21 21 20 20 20 20 20 20 19 19 19 19 19 19 19 19 19 19 19 19 19 19 19 19 19 19 19 19 19 19 19 19 19 19 19
26 25 24 23 22 22 21 21 21 21 20 20 20 20 20 20 19 19 19 19 19 19 19 19 19 19 19 19 19 19 19 19 19 19 19 19 19 19 19 19 19 19 19
26 25 24 24 23 22 21 21 21 21 20 20 20 20 20 20 19 19 19 19 19 19 19 19 19 19 19 19 19 19 19 19 19 19 19 19 19 19 19 19 19 19 19
26 25 24 24 23 22 21 21 21 21 20 20 20 20 19 19 19 19 19 19 19 19 19 19 19 19 19 19 19 19 19 19 19 19 19 19 19 19 19 19 19 19 19
26 25 24 23 23 22 22 21 21 21 20 20 20 19 19 19 19 19 19 19 18 19 19 19 19 19 18 18 19 19 19 19 19 19 19 19 20 20 19 19 19 19 19
26 25 24 24 23 22 22 21 21 20 20 20 20 19 19 19 19 19 19 18 18 19 19 18 18 18 18 18 19 18 19 19 19 19 19 19 19 19 19 19 19 19 19
26 25 24 24 23 22 22 21 21 20 20 20 19 19 19 19 19 19 18 18 18 19 19 18 18 18 18 18 18 18 18 18 18 18 19 19 19 19 19 19 19 19 19
26 25 24 24 23 22 22 21 21 20 20 19 19 19 19 19 18 18 18 18 18 18 18 18 18 18 18 18 18 18 18 18 18 18 18 18 18 18 18 18 18 18 18
26 25 25 24 23 22 21 21 20 20 20 19 19 19 19 18 18 18 18 18 18 18 18 18 18 18 18 18 18 18 17 17 17 18 18 18 18 18 18 18 18 18 18
26 25 25 24 23 22 21 21 20 20 19 19 19 19 19 18 18 18 18 18 18 18 18 18 17 17 17 17 17 17 17 17 17 17 17 17 17 17 17 17 17 18 17
26 25 25 24 23 22 21 20 20 19 19 19 19 18 18 18 18 18 18 18 17 17 17 17 17 17 17 17 17 17 17 17 17 17 17 17 17 17 17 17 17 17 17
26 25 24 23 22 21 21 20 20 19 19 19 18 18 18 17 17 17 17 17 17 17 17 17 17 17 17 17 17 16 16 16 16 16 16 16 17 17 17 17 17 17 17
25 25 24 23 22 21 20 20 19 19 18 18 18 18 17 17 17 17 17 17 17 17 17 17 16 16 16 16 16 16 16 16 16 16 16 16 16 16 16 16 16 16 16
25 24 23 22 21 20 20 19 19 19 18 18 18 17 17 17 17 17 16 17 16 16 16 16 16 16 16 16 16 16 16 15 15 15 15 15 15 15 15 15 16 16 16
24 23 23 22 21 20 19 19 19 18 18 18 17 17 17 17 16 16 16 16 16 16 16 16 16 16 16 16 16 15 15 15 15 15 15 15 15 15 15 15 15 15 15
24 23 22 21 20 20 19 19 18 18 18 17 17 17 17 16 16 16 16 16 16 16 16 15 16 15 15 15 15 15 15 15 15 15 14 15 14 15 15 15 15 15 15
23 22 22 21 20 20 19 19 18 18 17 17 17 16 16 16 16 16 16 16 16 15 15 15 15 15 15 15 15 15 15 14 14 14 14 14 14 14 14 14 14 14 14
23 22 21 21 20 19 19 18 18 17 17 17 16 16 16 16 16 16 15 15 15 15 15 15 15 15 15 15 15 14 14 14 14 14 14 14 14 14 14 14 14 14 14
22 21 21 21 20 19 19 18 18 17 17 16 16 16 16 16 15 15 15 15 15 15 15 15 14 14 14 14 14 14 14 14 14 14 14 14 14 14 14 14 14 14 14
21 21 21 20 19 19 18 18 17 17 16 16 16 16 16 15 15 15 15 15 14 14 14 14 14 14 14 14 14 14 14 13 13 13 13 13 13 13 13 13 13 13 13
21 20 20 20 19 18 18 17 17 16 16 16 15 15 15 15 15 15 14 14 14 14 14 14 14 14 14 14 14 14 13 13 13 13 13 13 13 13 13 13 13 13 13
20 20 19 19 18 18 17 17 16 16 16 15 15 15 15 15 15 14 14 14 14 14 14 14 14 14 14 14 14 13 13 13 13 13 13 13 13 13 13 13 13 13 13
19 19 18 18 18 17 17 16 16 16 15 15 15 15 14 14 14 14 14 14 14 14 13 14 14 14 13 13 13 13 13 13 13 13 12 12 13 13 13 13 13 12 12
18 18 17 17 17 17 16 16 16 15 15 15 14 14 14 14 14 14 14 13 13 13 13 13 13 13 13 13 13 13 13 13 12 12 12 12 12 12 12 12 12 12 12
17 17 17 16 16 16 16 15 15 15 14 14 14 14 14 14 14 14 13 13 13 13 13 13 13 13 12 12 13 13 12 12 12 12 12 12 12 12 12 12 12 12 12
16 16 16 16 15 15 15 15 15 14 14 13 13 13 13 13 13 13 13 13 13 13 13 12 12 12 12 12 12 12 12 12 12 11 11 11 11 11 11 11 11 11 11
Wind_Speed
9 9 8 9 9 8 7 5 5 4 2 2 1 2 2 2 2 3 4 3 3 3 3 3 2 2 3 2 1 1 0 0 0 1 0 1 2 3 3 3 2 4 5
8 9 8 8 8 8 7 6 5 4 3 2 1 2 2 1 2 3 4 3 3 2 2 3 2 3 2 1 1 1 1 1 1 1 0 0 1 1 2 3 3 3 3
8 9 9 8 8 8 7 6 5 4 3 2 2 2 2 1 2 3 3 3 2 3 3 3 3 2 1 1 0 1 1 1 1 0 0 0 0 0 1 2 2 3 3
9 9 9 8 8 8 8 7 5 4 3 2 1 1 1 2 2 2 3 2 1 2 3 3 3 3 2 2 1 1 2 1 1 1 1 0 1 1 0 0 1 2 2
9 9 9 9 8 8 9 8 6 5 4 2 1 1 1 1 1 2 2 2 2 2 2 2 2 2 1 1 2 2 2 2 2 2 1 1 1 1 2 1 1 0 1
9 9 8 10 8 8 8 8 7 5 4 3 2 2 2 2 1 1 1 1 1 1 2 2 2 1 1 1 1 1 1 2 2 3 2 1 1 1 0 1 1 1 1
11 10 9 10 9 8 7 8 8 6 5 4 3 2 1 1 1 0 0 0 1 1 1 2 2 1 1 1 1 1 1 1 2 2 2 2 2 2 1 0 0 0 1
10 10 9 9 8 8 8 8 7 6 5 4 3 2 2 1 1 0 0 1 1 2 2 2 2 2 2 1 1 1 0 1 2 2 2 2 2 2 1 1 0 1 1
10 9 9 9 9 8 7 7 7 6 5 4 3 3 1 0 1 1 1 1 1 1 2 2 2 2 2 2 1 1 1 1 1 1 2 2 1 1 1 1 1 1 1
9 9 8 8 8 8 8 7 7 6 5 4 3 3 2 1 1 1 2 3 3 3 2 1 1 1 1 2 1 1 1 1 1 1 1 1 2 2 1 1 1 1 1
9 8 7 8 8 8 8 7 6 5 4 4 3 2 3 2 1 1 1 2 2 2 2 1 1 1 1 1 1 1 0 0 1 1 1 1 2 2 2 2 1 1 1
9 9 9 8 7 7 7 6 5 5 4 4 3 3 2 2 2 2 2 2 1 1 1 1 1 1 1 1 1 2 1 0 0 1 1 1 1 1 3 3 2 1 0
9 9 9 8 7 6 5 5 4 4 4 4 3 3 2 2 2 1 1 1 1 1 1 1 1 1 1 1 1 1 1 0 0 0 1 1 1 1 1 2 3 2 2
7 7 8 7 7 5 5 4 3 4 4 4 4 3 2 1 1 1 1 1 1 0 1 1 1 1 1 1 1 1 1 1 1 1 1 1 1 0 2 2 2 2 3
8 8 7 7 6 6 4 4 3 3 3 3 3 3 3 2 1 1 1 1 0 1 1 1 1 2 2 1 1 1 1 1 1 1 1 1 1 1 0 1 2 2 2
7 7 7 7 6 6 5 4 4 3 3 3 2 2 2 2 1 1 1 1 1 1 2 1 2 2 2 2 2 2 2 1 2 2 1 1 1 2 2 2 2 2 3
6 6 5 6 6 5 5 4 4 4 3 3 2 2 2 1 1 1 1 1 1 2 2 2 1 1 1 2 2 2 2 2 2 2 2 3 2 1 1 2 4 4 5
6 5 5 5 6 6 5 4 4 4 3 3 2 2 2 1 1 1 1 2 2 2 2 2 2 1 1 1 1 2 2 3 3 3 3 2 1 2 2 3 3 3 3
5 5 4 4 4 5 5 4 3 3 3 2 2 2 1 1 1 1 1 1 2 2 2 2 2 2 2 1 1 1 2 2 3 3 3 2 2 3 2 2 3 4 4
4 4 4 4 4 4 4 4 3 3 2 2 2 2 2 2 2 1 1 2 2 2 2 2 2 2 2 3 2 2 3 3 3 2 2 2 1 2 1 2 4 5 5
4 4 4 4 3 3 3 3 3 2 1 1 1 1 1 1 1 1 2 2 2 3 3 3 3 3 4 3 4 3 3 3 4 3 2 2 2 2 3 4 5 6 6
4 4 4 4 3 3 2 2 2 1 1 1 0 0 1 2 2 1 2 2 2 3 4 4 4 4 3 4 4 4 5 4 4 4 3 2 2 3 5 6 7 7 6
4 3 4 4 3 3 2 2 2 2 1 0 0 1 1 2 2 2 2 2 2 3 4 3 3 3 2 2 3 5 5 5 4 4 5 5 5 5 6 8 9 6 4
4 3 3 3 3 3 2 2 2 1 1 0 0 1 2 2 2 2 2 2 2 3 3 3 3 2 1 1 1 2 2 3 4 4 5 5 6 7 7 6 5 5 5
3 3 3 3 2 2 2 2 2 1 0 1 1 2 1 1 2 2 2 2 1 2 2 3 3 3 2 2 2 2 3 3 3 3 4 4 3 4 3 4 4 4 4
3 3 3 2 2 2 2 2 2 1 0 1 1 1 2 1 2 1 2 2 1 1 1 1 3 3 2 2 2 3 4 4 3 2 4 4 4 4 4 4 4 4 4
Wind_Direction
149 145 142 133 125 119 113 106 105 100 91 81 87 87 84 79 95 98 91 81 62 57 40 63 78 69 79 94 115 99 246 295 90 41 27 209 174 154 152 165 157 157 160
143 142 141 135 130 124 124 123 120 118 112 99 88 90 90 83 90 77 88 83 67 56 68 69 73 78 79 69 75 44 295 259 123 131 325 102 122 140 167 154 163 162 154
158 156 153 145 139 133 132 127 118 119 126 130 121 102 106 89 78 93 93 73 62 66 43 42 40 66 85 77 31 351 359 333 320 176 172 160 138 247 111 146 140 144 149
163 163 153 147 141 135 128 116 123 122 117 112 98 130 125 99 85 95 100 105 100 92 79 68 41 23 20 34 325 48 326 298 285 292 275 230 176 156 146 301 110 139 131
158 154 154 148 146 142 138 133 130 123 117 118 96 86 81 102 97 102 114 119 107 102 90 80 60 43 16 9 9 26 355 337 323 314 328 298 267 251 184 190 166 215 153
146 141 146 145 145 144 142 141 135 132 129 121 95 74 63 67 76 86 109 119 114 111 102 96 71 58 1 24 6 351 347 334 339 334 331 310 316 328 312 189 197 190 211
144 144 144 143 144 142 141 138 137 140 147 143 128 115 97 110 157 129 103 130 98 69 52 66 63 40 11 24 348 336 327 330 329 331 326 343 354 350 356 55 268 260 238
143 144 146 145 144 142 137 134 137 139 144 147 145 147 172 207 222 258 6 10 38 68 59 63 53 28 10 8 358 340 282 333 316 315 333 335 347 344 359 26 340 291 280
145 147 150 147 146 144 137 135 135 139 146 147 141 149 160 348 33 22 8 47 43 80 75 63 56 37 18 4 3 347 348 358 313 313 333 340 327 342 345 8 29 331 290
148 147 147 147 145 143 137 137 135 140 146 144 156 156 139 126 106 51 29 37 31 29 43 54 48 30 13 4 348 321 5 354 327 316 336 331 329 346 344 0 340 327 291
151 149 147 143 142 140 137 134 134 138 146 146 147 134 141 147 132 101 74 66 47 23 17 17 18 13 351 335 325 319 11 345 314 304 332 329 338 332 328 330 341 359 353
150 147 143 140 139 139 137 136 141 144 143 135 137 134 132 121 101 87 83 84 71 21 13 354 344 328 328 325 314 313 1 11 341 330 357 331 319 340 344 338 338 341 339
145 143 139 141 136 131 130 136 145 144 141 132 128 119 116 111 103 88 72 66 57 7 4 322 313 312 312 302 314 313 327 341 318 300 275 293 329 340 325 322 328 318 312
139 143 141 139 131 127 125 132 149 141 137 132 133 124 114 106 115 103 86 64 46 342 308 307 302 299 306 338 356 320 306 321 334 312 294 283 291 284 293 284 299 307 312
149 147 147 142 139 137 137 142 139 127 122 127 136 133 129 129 126 135 160 169 181 275 292 297 295 275 271 294 337 301 259 317 317 305 288 261 164 114 29 312 318 318 316
151 147 149 144 146 151 151 147 145 136 130 137 149 136 141 151 161 179 186 190 209 257 264 262 282 289 292 4 11 348 304 265 262 272 283 233 173 175 192 235 290 300 285
143 144 154 157 154 154 154 161 157 154 156 158 156 154 155 169 200 245 239 237 237 240 251 255 263 292 326 9 18 353 323 292 272 267 277 277 286 8 271 256 247 257 265
146 145 153 154 160 161 164 161 159 154 155 165 174 182 187 194 205 255 273 272 271 266 266 262 246 211 272 345 359 326 285 282 269 257 246 246 279 296 311 285 273 259 254
140 147 155 150 146 152 157 154 153 155 163 173 179 179 185 193 219 264 278 283 278 265 257 261 251 222 212 249 296 296 272 273 276 259 258 244 248 292 309 287 278 279 279
136 146 149 141 133 143 145 148 155 157 170 183 197 192 194 210 227 252 279 284 279 280 271 260 250 235 221 230 240 256 257 265 275 263 253 240 220 264 271 269 274 275 280
120 125 122 115 112 109 131 151 153 168 180 181 198 189 191 222 228 232 247 264 279 276 269 263 253 240 231 225 230 229 246 267 269 265 255 241 207 243 259 265 266 269 277
107 107 102 100 97 102 118 131 137 134 111 132 172 192 228 260 256 239 249 258 274 275 263 257 255 254 237 216 221 219 230 259 270 274 277 269 266 263 263 261 267 276 276
88 91 92 97 97 89 79 103 96 89 92 113 209 249 251 257 250 246 245 250 259 271 275 268 259 263 252 209 212 223 238 249 259 279 296 294 277 268 258 247 254 261 260
90 90 96 93 96 96 85 81 89 98 113 120 261 267 250 251 252 250 242 254 268 279 286 290 287 277 261 273 287 267 259 253 261 281 294 283 266 268 265 257 252 244 249
82 89 93 87 85 93 94 91 83 81 139 209 260 273 275 281 265 262 265 260 279 261 271 289 293 287 283 290 302 277 268 268 269 279 277 270 261 258 259 249 245 245 248
72 71 76 72 61 72 93 106 103 101 6 277 293 291 279 285 290 288 319 333 293 302 341 321 302 306 293 251 269 279 268 256 254 267 268 268 267 266 269 273 267 254 251
Height
1502 1505 1507 1509 1510 1510 1511 1511 1512 1513 1513 1514 1515 1515 1516 1516 1517 1517 1517 1517 1517 1518 1518 1518 1518 1519 1519 1520 1521 1521 1521 1522 1522 1522 1522 1523 1523 1524 1524 1525 1526 1526 1526
1501 1504 1506 1508 1509 1510 1511 1512 1512 1513 1514 1514 1515 1516 1516 1517 1518 1518 1518 1518 1518 1519 1519 1519 1519 1519 1520 1520 1521 1521 1521 1522 1522 1522 1522 1523 1524 1524 1524 1524 1525 1525 1525
1499 1502 1505 1507 1509 1510 1510 1512 1512 1513 1514 1515 1516 1517 1517 1518 1518 1519 1519 1519 1519 1519 1519 1520 1520 1520 1520 1520 1521 1521 1521 1522 1522 1522 1523 1522 1523 1523 1524 1524 1524 1524 1524
1497 1500 1503 1505 1508 1509 1510 1511 1512 1513 1514 1515 1516 1517 1518 1518 1519 1519 1519 1519 1519 1519 1519 1519 1520 1520 1520 1520 1520 1521 1521 1521 1521 1521 1522 1522 1522 1522 1523 1524 1523 1523 1523
1495 1498 1501 1504 1506 1509 1510 1511 1512 1513 1514 1515 1516 1517 1518 1518 1519 1519 1519 1520 1520 1520 1519 1519 1519 1519 1519 1520 1520 1520 1520 1520 1520 1521 1521 1521 1521 1521 1522 1522 1522 1522 1522
1494 1498 1501 1503 1506 1508 1509 1510 1511 1513 1514 1515 1516 1517 1517 1518 1518 1519 1519 1519 1519 1519 1519 1519 1518 1518 1518 1518 1518 1518 1519 1519 1519 1519 1520 1520 1520 1520 1520 1520 1520 1521 1521
1493 1497 1500 1503 1506 1507 1509 1510 1511 1512 1513 1514 1515 1516 1517 1518 1518 1519 1519 1519 1519 1518 1518 1518 1517 1517 1517 1517 1517 1517 1517 1517 1518 1518 1518 1518 1519 1519 1519 1519 1519 1520 1520
1492 1496 1499 1502 1505 1507 1508 1509 1510 1512 1513 1514 1515 1516 1516 1517 1518 1518 1519 1518 1518 1518 1517 1517 1516 1516 1516 1516 1516 1515 1516 1516 1516 1516 1517 1517 1517 1518 1518 1518 1518 1519 1519
1491 1495 1499 1501 1504 1506 1507 1509 1509 1511 1512 1513 1514 1515 1516 1516 1517 1517 1517 1517 1517 1517 1516 1516 1515 1515 1514 1514 1514 1514 1514 1514 1514 1515 1515 1515 1515 1516 1517 1517 1517 1518 1518
1491 1494 1497 1500 1503 1505 1506 1508 1509 1510 1511 1512 1513 1514 1515 1515 1516 1516 1516 1516 1515 1515 1515 1514 1514 1513 1513 1513 1513 1512 1513 1513 1513 1513 1513 1514 1514 1514 1515 1516 1516 1516 1516
1489 1493 1496 1499 1502 1504 1506 1507 1508 1509 1510 1511 1512 1513 1514 1514 1514 1515 1515 1514 1514 1514 1513 1513 1512 1512 1511 1511 1511 1511 1511 1511 1511 1511 1512 1512 1512 1513 1513 1514 1514 1514 1515
1488 1491 1495 1498 1501 1503 1505 1506 1508 1509 1510 1510 1511 1512 1512 1513 1513 1513 1513 1513 1513 1512 1511 1511 1511 1510 1510 1510 1510 1510 1510 1509 1509 1509 1510 1510 1510 1511 1511 1512 1512 1512 1513
1488 1491 1494 1497 1499 1502 1504 1505 1507 1508 1509 1509 1510 1511 1511 1512 1512 1512 1512 1512 1511 1511 1510 1510 1509 1509 1509 1508 1508 1508 1508 1508 1507 1507 1507 1508 1508 1508 1509 1509 1510 1510 1511
1488 1490 1493 1496 1498 1501 1503 1504 1506 1507 1507 1508 1509 1509 1510 1510 1510 1511 1511 1510 1510 1509 1509 1508 1508 1508 1507 1507 1506 1506 1506 1506 1506 1506 1506 1506 1506 1506 1506 1507 1507 1508 1508
1487 1490 1493 1495 1497 1500 1502 1503 1504 1505 1506 1507 1507 1508 1508 1509 1509 1509 1509 1509 1508 1508 1508 1507 1506 1506 1506 1505 1505 1504 1504 1503 1503 1503 1503 1503 1503 1503 1503 1504 1505 1505 1506
1486 1489 1492 1494 1496 1498 1500 1502 1503 1504 1504 1505 1506 1506 1507 1507 1507 1507 1507 1507 1506 1506 1506 1505 1505 1504 1504 1504 1503 1502 1502 1501 1501 1501 1501 1501 1501 1501 1501 1502 1502 1503 1503
1485 1487 1490 1493 1495 1497 1498 1500 1501 1502 1503 1503 1504 1505 1505 1505 1505 1506 1506 1505 1505 1504 1504 1503 1502 1502 1502 1502 1501 1501 1500 1499 1499 1499 1499 1499 1499 1499 1499 1499 1500 1500 1500
1484 1487 1489 1491 1493 1495 1497 1499 1500 1500 1501 1501 1502 1502 1503 1503 1503 1503 1503 1503 1503 1502 1502 1501 1501 1500 1499 1499 1499 1498 1498 1497 1497 1497 1497 1497 1497 1496 1496 1496 1497 1497 1497
1483 1486 1488 1490 1492 1494 1495 1497 1498 1498 1499 1499 1499 1500 1500 1500 1500 1500 1500 1500 1500 1499 1499 1499 1498 1497 1497 1497 1496 1496 1495 1495 1495 1495 1495 1494 1494 1494 1494 1494 1493 1493 1493
1482 1485 1487 1488 1490 1492 1494 1495 1496 1496 1497 1497 1497 1498 1498 1498 1498 1498 1497 1497 1497 1496 1496 1496 1495 1495 1494 1494 1494 1494 1493 1492 1492 1492 1492 1491 1491 1490 1490 1490 1490 1489 1489
1482 1484 1486 1487 1489 1491 1492 1493 1494 1494 1495 1495 1496 1496 1495 1495 1495 1495 1495 1494 1494 1494 1493 1493 1492 1492 1491 1491 1491 1491 1490 1490 1489 1489 1488 1488 1488 1487 1487 1486 1486 1486 1486
1482 1483 1485 1486 1488 1489 1490 1491 1492 1492 1493 1493 1493 1493 1493 1493 1493 1493 1492 1492 1491 1491 1490 1489 1489 1488 1488 1488 1487 1487 1487 1487 1487 1486 1486 1485 1484 1484 1483 1483 1482 1482 1482
1482 1483 1484 1485 1486 1488 1489 1489 1490 1490 1490 1491 1491 1491 1491 1491 1491 1490 1490 1489 1489 1488 1487 1486 1486 1486 1485 1485 1485 1484 1484 1484 1483 1483 1483 1482 1481 1480 1479 1479 1479 1479 1478
1481 1483 1484 1484 1485 1486 1487 1487 1487 1488 1488 1488 1488 1488 1488 1488 1488 1488 1487 1487 1486 1485 1485 1484 1483 1483 1483 1482 1481 1480 1480 1480 1480 1479 1478 1478 1477 1477 1476 1475 1475 1474 1474
1481 1482 1483 1483 1484 1484 1485 1485 1485 1485 1486 1485 1486 1486 1486 1486 1485 1485 1485 1484 1483 1483 1482 1481 1481 1480 1479 1478 1478 1477 1476 1476 1476 1475 1475 1474 1474 1473 1472 1472 1471 1471 1470
1481 1482 1482 1483 1483 1483 1483 1483 1483 1483 1484 1483 1483 1484 1484 1483 1483 1482 1482 1481 1481 1480 1479 1479 1478 1477 1476 1475 1474 1474 1473 1473 1473 1472 1471 1471 1471 1470 1469 1468 1468 1467 1467